#timestamp,LO_Frequency,Hit,StdDev 
1615982415.7,286047002.4,N
1615982435.5,286047002.3,N
1615982455.3,286047002.5,N
1615982475.2,286047000.2,N
1615982495.0,286046999.9,N
1615982495.9,286046999.9,N
1615982515.8,286047000.4,N
1615982535.6,286047000.8,N
1615982555.4,286047000.7,N
1615982575.3,286046998.3,N
1615982595.1,286046996.5,N
1615982615.8,286046997.0,N
1615982635.7,286046996.5,N
1615982655.5,286046997.3,N
1615982675.4,286046999.1,N
1615982695.2,286046996.5,N
1615982715.0,286046997.2,N
1615982715.9,286046997.2,N
1615982735.8,286046996.6,N
1615982755.6,286046996.6,N
1615982775.4,286046996.5,N
1615982795.3,286046999.0,N
1615982815.1,286047001.2,N
1615982835.9,286047001.1,N
1615982855.7,286047001.1,N
1615982875.5,286046998.5,N
1615982895.4,286046998.5,N
1615982915.2,286046998.4,N
1615982935.0,286046999.6,N
1615982935.9,286046999.6,N
1615982955.8,286046997.2,N
1615982975.6,286046999.6,N
1615982995.5,286046994.9,N
1615983015.3,286046997.3,N
1615983035.1,286046997.9,N
1615983055.9,286046997.7,N
1615983075.7,286046996.8,N
1615983095.5,286046997.8,N
1615983115.4,286046998.9,N
1615983135.2,286046998.1,N
1615983155.1,286047000.7,N
1615983156.0,286047000.7,N
1615983175.8,286047000.5,N
1615983195.6,286047000.3,N
1615983215.5,286047000.6,N
1615983235.3,286046998.6,N
1615983255.1,286047000.8,N
1615983275.9,286046998.9,N
1615983295.7,286046996.5,N
1615983315.5,286046996.7,N
1615983335.4,286046999.4,N
1615983355.2,286046999.1,N
1615983375.1,286046999.2,N
1615983376.0,286046999.2,N
1615983395.8,286046999.0,N
1615983415.6,286046998.6,N
1615983435.5,286046999.2,N
1615983455.3,286046998.8,N
1615983475.1,286046998.6,N
1615983495.9,286047000.9,N
1615983515.7,286047000.0,N
1615983535.6,286046999.8,N
1615983555.4,286047001.9,N
1615983575.2,286047002.3,N
1615983595.1,286047001.7,N
1615983596.0,286047001.7,N
1615983615.8,286047003.9,N
1615983635.6,286047003.4,N
1615983655.5,286047005.7,Y
1615983675.3,286047005.3,P
1615983695.2,286047004.9,N
1615983715.9,286047007.1,N
1615983735.7,286047006.3,N
1615983755.6,286047008.6,Y
1615983775.4,286047003.1,P
1615983795.2,286047003.1,P
1615983815.1,286047006.0,P
1615983816.0,286047006.0,Y
1615983835.8,286046999.7,P
1615983855.7,286047002.7,N
1615983875.5,286046999.7,N
1615983895.3,286047002.4,N
1615983915.2,286047002.4,N
1615983935.0,286047000.5,N
1615983935.9,286047000.5,N
1615983955.8,286047000.3,N
1615983975.6,286047000.6,N
1615983995.4,286046998.5,N
1615984015.3,286047000.8,N
1615984035.1,286046998.5,N
1615984036.0,286046998.5,N
1615984055.8,286047000.2,N
1615984075.7,286046999.7,N
1615984095.5,286047000.1,N
1615984115.3,286047002.4,N
1615984135.2,286047002.4,N
1615984155.0,286047001.9,N
1615984155.9,286047001.9,N
1615984175.8,286047001.8,N
1615984195.6,286047002.7,N
1615984215.4,286047001.6,N
1615984235.3,286047002.1,N
1615984255.1,286047000.1,N
1615984275.8,286047002.7,N
1615984295.7,286047002.3,N
1615984315.5,286047000.8,N
1615984335.4,286047000.6,N
1615984355.2,286046999.9,N
1615984375.0,286047002.4,N
1615984375.9,286047002.4,N
1615984395.8,286047002.5,N
1615984415.6,286047002.3,N
1615984435.4,286046999.7,N
1615984455.3,286047000.1,N
1615984475.1,286047000.0,N
1615984495.9,286047002.4,N
1615984515.7,286047002.5,N
1615984535.5,286047003.7,N
1615984555.4,286047001.7,N
1615984575.2,286047003.0,N
1615984595.1,286047004.8,Y
1615984596.0,286047004.8,P
1615984615.8,286047001.6,N
1615984635.6,286047002.3,N
1615984655.5,286047002.3,N
1615984675.3,286047002.1,N
1615984695.1,286046999.7,N
1615984715.9,286047000.9,N
1615984735.7,286046998.5,N
1615984755.6,286046998.5,N
1615984775.4,286047001.0,N
1615984795.2,286046998.7,N
1615984815.1,286047000.5,N
1615984816.0,286047000.5,N
1615984835.8,286046998.2,N
1615984855.6,286046998.6,N
1615984875.5,286046999.3,N
1615984895.3,286046999.1,N
1615984915.1,286046998.8,N
1615984935.9,286046996.9,N
1615984955.7,286046996.7,N
1615984975.6,286046997.3,N
1615984995.4,286046997.1,N
1615985015.2,286046996.8,N
1615985035.1,286046997.4,N
1615985036.0,286046997.4,N
1615985055.8,286046997.5,N
1615985075.7,286046995.7,N
1615985095.5,286046997.5,N
1615985115.3,286046997.9,N
1615985135.2,286046993.4,Y
1615985155.0,286046995.0,P
1615985155.9,286046995.0,N
1615985175.7,286046995.6,N
1615985195.6,286046995.8,N
1615985215.4,286046993.6,Y
1615985235.3,286046999.6,P
1615985255.1,286046999.4,N
1615985275.8,286046998.8,N
1615985295.7,286046998.9,N
1615985315.5,286046996.5,N
1615985335.3,286046996.6,N
1615985355.2,286046998.0,N
1615985375.0,286046997.9,N
1615985375.9,286046997.9,N
1615985395.8,286046997.5,N
1615985415.6,286046997.8,N
1615985435.4,286046998.0,N
1615985455.3,286046998.0,N
1615985475.1,286046997.4,N
1615985495.8,286046997.6,N
1615985515.7,286046997.2,N
1615985535.5,286046996.8,Y
1615985555.4,286046998.3,P
1615985575.2,286046998.5,P
1615985595.0,286046999.0,P
1615985595.9,286046999.0,N
1615985615.8,286046999.4,N
1615985635.6,286046998.9,N
1615985655.4,286046999.4,N
1615985675.3,286046998.9,N
1615985695.1,286046999.5,N
1615985715.9,286046998.5,Y
1615985735.7,286046999.7,P
1615985755.5,286047002.8,P
1615985775.4,286046999.8,N
1615985795.2,286047000.2,N
1615985815.0,286047000.2,N
1615985815.9,286047000.2,N
1615985835.8,286047000.0,N
1615985855.6,286047000.0,N
1615985875.5,286047000.9,N
1615985895.3,286047000.1,N
1615985915.1,286047002.2,N
1615985935.9,286047002.5,N
1615985955.7,286047002.7,N
1615985975.5,286047002.5,N
1615985995.4,286047002.3,N
